Regional Weather Roundup
Issued by NWS

Home | Current Version | Previous Version | Text Only | Print | Product List | Glossary On
Versions: 1 2 3 4 5 6 7 8 9 10 11 12 13 14 15 16 17 18 19 20 21 22 23 24 25 26 27 28 29 30 31 32 33 34 35 36 37 38 39 40 41 42 43 44 45 46 47 48 49 50
000
ASUS46 KSTO 291515
RWRCA

NORTHERN AND CENTRAL CA REGIONAL WEATHER ROUNDUP
NATIONAL WEATHER SERVICE SACRAMENTO CA
800 AM PDT MON MAY 29 2017

NOTE: FAIR INDICATES FEW OR NO CLOUDS BELOW 12,000 FEET WITH NO
SIGNIFICANT WEATHER AND/OR OBSTRUCTIONS TO VISIBILITY.

CAZ001-003-291600-
NORTHWEST AREA

CITY           SKY/WX    TMP DP  RH WIND       PRES   REMARKS
CRESCENT CITY  CLOUDY    52  52 100 N5        30.07R FOG
UKIAH          SUNNY     59  50  72 CALM      29.96F
$$

CAZ006-505>513-291600-
BAY AREA

CITY           SKY/WX    TMP DP  RH WIND       PRES   REMARKS
SANTA ROSA     CLOUDY    52  51  97 S3        29.98R FOG
SAN RAFAEL     N/A       51  MM  MM MISG
NAPA           CLOUDY    56  51  84 W6        29.99R
CONCORD        PTSUNNY   56  51  84 S12       29.98R
OAKLAND CITY   N/A      MM  MM  MM MISG
OAKLAND        CLOUDY    55  51  86 W15       30.02R
SAN FRAN CITY  N/A       51  MM  98 MISG
SAN FRAN ARPT  CLOUDY    53  49  86 W15       30.02R
LIVERMORE      CLOUDY    53  49  86 W8        30.00R
HAYWARD        CLOUDY    55  48  77 W9        30.02R
REDWOOD CITY   N/A       54  MM  86 MISG
MOFFETT ARPT   CLOUDY    56  51  84 NW8       30.02R
SAN JOSE ARPT  CLOUDY    56  52  86 NW6       30.01R
$$
CAZ034-037-514>518-291600-
CENTRAL COAST

CITY           SKY/WX    TMP DP  RH WIND       PRES   REMARKS
WATSONVILLE    CLOUDY    54  54 100 SW3       30.01R FOG
SALINAS        CLOUDY    55  51  86 W6        30.01R
MONTEREY       CLOUDY    53  51  93 W3        30.01S
SAN LUIS OBISP CLOUDY    57  52  83 W3        29.94F
SANTA MARIA    CLOUDY    53  53 100 CALM      29.95F FOG
$$
CAZ015-016-291600-
NORTHERN SACRAMENTO VALLEY

CITY           SKY/WX    TMP DP  RH WIND       PRES   REMARKS
REDDING        MOSUNNY   69  58  67 CALM      29.93S
RED BLUFF      MOSUNNY   72  57  59 NE3       29.93F
OROVILLE       MOSUNNY   66  56  70 E5        29.93F
$$
CAZ016>018-291600-
SOUTHERN SACRAMENTO VALLEY

CITY           SKY/WX    TMP DP  RH WIND       PRES   REMARKS
AUBURN         PTSUNNY   72  55  56 CALM      29.95F
BEALE AFB      PTSUNNY   61  53  75 CALM      29.91F
LINCOLN        FAIR      61  50  67 S9        29.92F
MARYSVILLE     PTSUNNY   63  53  70 SE6       29.93S
SAC INTL ARPT  PTSUNNY   58  54  86 SE9       29.92S
MATHER AIRPORT SUNNY     57  54  88 S6        29.94S
DOWNTOWN SAC   N/A       60  MM  MM MISG
SAC EXEC ARPT  PTSUNNY  N/A N/A N/A S9        29.93R
VACAVILLE      MOSUNNY   59  54  83 W6        29.94R
TRAVIS AFB     SUNNY     56  52  86 SW25G31   29.91S
$$
CAZ019>021-291600-
SAN JOAQUIN VALLEY

CITY           SKY/WX    TMP DP  RH WIND       PRES   REMARKS
STOCKTON       PTSUNNY   60  52  74 NW5       29.93F
MODESTO        PTSUNNY   62  51  67 N8        29.92F
MERCED         MOSUNNY   64  52  64 NW8       29.92S
LEMOORE        MOSUNNY   70  50  49 N13       29.93R
FRESNO         PTSUNNY   68  56  65 NW7       29.93R
HANFORD        SUNNY     68  55  63 NW13      29.93S
PORTERVILLE      N/A     69  58  67 NW3       29.94S
BAKERSFIELD    SUNNY     72  56  57 SE5       29.92S
$$
CAZ011-012-071-291600-
NORTHERN MOUNTAINS

CITY           SKY/WX    TMP DP  RH WIND       PRES   REMARKS
YREKA          MOSUNNY   62  52  69 CALM      30.05S
MOUNT SHASTA   PTSUNNY   64  49  57 CALM      30.06F
ALTURAS        SUNNY     60  38  43 CALM      30.11F
$$
CAZ011-012-071-291600-
SIERRA NEVADA MTNS

CITY           SKY/WX    TMP DP  RH WIND       PRES   REMARKS
BLUE CANYON    MOSUNNY   65  34  31 CALM      30.13F
TAHOE VLY ARPT MOSUNNY   50  36  58 CALM      30.20S
MAMMOTH LAKES  FAIR      55  31  40 CALM      30.25S
$$



USA.gov is the U.S. government's official web portal to all federal, state and local government web resources and services.